User: anonymous   Login
Location: Ostrava
(49.8330°N, 18.2830°E)
Time: 05:30:40
(UTC+01:00)
Language:

Vanguard 2 Rocket - Orbit

View from above orbital plane
View from above orbital plane
View from above satellite
View from above satellite

Ground track
Ground track

The orbit data is extracted from the following two-line orbital elements,

1 00012U 59001B   16041.41452267  .00000259  00000-0  15267-3 0  9991
2 00012  32.8997 149.4008 1667799   3.3971 357.6493 11.43972803340504
Epoch (UTC): 10 February 2016 09:56:54
Eccentricity: 0.1667799
inclination: 32.8997°
perigee height: 554 km
apogee height: 3329 km
right ascension of ascending node: 149.4008°
argument of perigee: 3.3971°
revolutions per day: 11.43972803
mean anomaly at epoch: 357.6493°
orbit number at epoch: 34050

The dashed part of the orbit path shows where the satellite is in the earth's shadow,  

DLR